W5TTY Weather Reports


time (UTC)temp
C
wind
direction
speed
KPH
gust
KPH
rain 1hr
cm
rain 24hr
cm
rain mn
cm
humidity
%
barometer
mb
20260905154320 30 221 3.2 16.1 0.00 0.03 0.00 88 1014.4
20260905153851 29 252 8.0 16.1 0.00 0.03 0.00 88 1014.3
20260905153333 29 234 1.6 12.9 0.00 0.03 0.00 88 1014.4
20260905152839 29 230 8.0 12.9 0.00 0.03 0.00 88 1014.4
20260905152323 29 252 4.8 16.1 0.00 0.03 0.00 88 1014.4
20260905151826 29 243 6.4 16.1 0.00 0.03 0.00 88 1014.3
20260905151330 29 193 4.8 11.3 0.00 0.03 0.00 88 1014.3
20260905150835 28 307 4.8 11.3 0.00 0.03 0.00 88 1014.2
20260905150347 28 286 1.6 8.0 0.00 0.03 0.00 88 1014.3
20260905145820 28 259 1.6 4.8 0.00 0.03 0.00 88 1014.4
20260905145331 28 261 1.6 11.3 0.00 0.03 0.00 88 1014.5
20260905144836 28 275 3.2 11.3 0.00 0.03 0.00 88 1014.5
20260905144321 28 276 1.6 6.4 0.00 0.03 0.00 88 1014.5
20260905143847 27 262 1.6 4.8 0.00 0.03 0.00 88 1014.4
20260905143328 27 263 3.2 4.8 0.00 0.03 0.00 87 1014.4
20260905142840 27 263 0.0 4.8 0.00 0.03 0.00 87 1014.5
20260905142341 27 246 0.0 0.0 0.00 0.03 0.00 87 1014.5
20260905141826 27 165 0.0 0.0 0.00 0.03 0.00 87 1014.5
20260905141325 27 141 0.0 0.0 0.00 0.03 0.00 87 1014.4
20260905140827 27 140 0.0 0.0 0.00 0.03 0.00 87 1014.5
20260905140333 26 140 0.0 0.0 0.00 0.03 0.00 87 1014.5
20260905135838 26 140 0.0 0.0 0.00 0.03 0.00 87 1014.5
20260905135319 26 150 0.0 0.0 0.00 0.03 0.00 87 1014.4
20260905134820 26 173 0.0 0.0 0.00 0.03 0.00 87 1014.4
20260905134353 26 173 0.0 0.0 0.00 0.03 0.00 87 1014.4
20260905133836 25 173 0.0 0.0 0.00 0.03 0.00 87 1014.4
20260905133321 25 174 0.0 0.0 0.00 0.03 0.00 86 1014.3
20260905132828 25 173 0.0 1.6 0.00 0.03 0.00 86 1014.3
20260905132329 25 173 0.0 1.6 0.00 0.03 0.00 86 1014.2
20260905131834 25 173 0.0 0.0 0.00 0.03 0.00 86 1014.2
20260905131318 24 173 0.0 4.8 0.00 0.03 0.00 86 1014.2
20260905130820 24 173 0.0 4.8 0.00 0.03 0.00 86 1014.2
20260905130331 24 174 3.2 4.8 0.00 0.03 0.00 86 1014.2
20260905125818 23 174 3.2 4.8 0.00 0.03 0.00 86 1014.2
20260905125318 23 175 1.6 4.8 0.00 0.03 0.00 86 1014.0
20260905124823 23 175 3.2 6.4 0.00 0.03 0.00 86 1013.9
20260905124349 23 180 3.2 6.4 0.00 0.03 0.00 85 1013.8
20260905123844 23 194 3.2 4.8 0.00 0.03 0.00 85 1013.7
20260905123317 23 197 1.6 3.2 0.00 0.03 0.00 85 1013.7
20260905122831 23 197 1.6 4.8 0.00 0.03 0.00 85 1013.6
20260905122353 23 197 3.2 4.8 0.00 0.03 0.00 85 1013.7
20260905121818 23 197 0.0 0.0 0.00 0.03 0.00 85 1013.5
20260905121350 23 197 0.0 0.0 0.00 0.03 0.00 85 1013.5
20260905120837 23 197 0.0 0.0 0.00 0.03 0.00 85 1013.5
20260905120325 23 197 0.0 0.0 0.00 0.03 0.00 85 1013.4
20260905050822 26 138 3.2 8.0 0.00 0.08 0.00 77 1013.3
20260905050323 26 155 3.2 9.7 0.00 0.08 0.00 77 1013.2
20260905045830 26 166 3.2 8.0 0.00 0.08 0.00 77 1013.3
20260905045336 26 171 3.2 8.0 0.00 0.08 0.08 77 1013.3
20260905044820 26 170 3.2 6.4 0.00 0.08 0.08 77 1013.2
20260905044325 26 190 1.6 8.0 0.00 0.08 0.08 77 1013.2
20260905043838 26 192 3.2 8.0 0.00 0.08 0.08 77 1013.3
20260905043345 26 188 3.2 8.0 0.00 0.08 0.08 76 1013.3
20260905042829 26 184 3.2 11.3 0.00 0.08 0.08 76 1013.3
20260905042333 26 144 4.8 11.3 0.00 0.08 0.08 76 1013.4
20260905041840 26 159 4.8 11.3 0.00 0.08 0.08 76 1013.3
20260905041321 26 146 3.2 11.3 0.00 0.08 0.08 76 1013.3
20260905040833 26 154 4.8 12.9 0.00 0.08 0.08 76 1013.4
20260905040342 26 158 6.4 12.9 0.00 0.08 0.08 76 1013.3
20260905035830 26 151 3.2 8.0 0.00 0.08 0.08 76 1013.3
20260905035338 26 187 3.2 11.3 0.00 0.08 0.08 75 1013.4
20260905034846 26 178 3.2 12.9 0.00 0.08 0.08 75 1013.3
20260905034332 26 148 3.2 14.5 0.00 0.08 0.08 75 1013.3
20260905033857 26 142 6.4 14.5 0.00 0.08 0.08 75 1013.3
20260905033322 26 125 6.4 12.9 0.00 0.08 0.08 75 1013.2
20260905032826 26 128 4.8 12.9 0.00 0.08 0.08 75 1013.3
20260905032359 26 138 4.8 14.5 0.00 0.08 0.08 75 1013.2
20260905031824 26 148 4.8 14.5 0.00 0.08 0.08 74 1013.3
20260905031328 26 150 6.4 14.5 0.00 0.08 0.08 74 1013.2
20260905030833 26 165 6.4 11.3 0.00 0.08 0.08 74 1013.2
20260905030320 26 132 4.8 11.3 0.00 0.08 0.08 74 1013.2
20260905025830 26 121 4.8 11.3 0.00 0.08 0.08 74 1013.3
20260905025335 26 157 4.8 11.3 0.00 0.08 0.08 73 1013.2
20260905024822 26 149 4.8 11.3 0.00 0.08 0.08 73 1013.2
20260905024326 26 132 4.8 11.3 0.00 0.08 0.08 73 1013.2
20260905023826 27 130 4.8 11.3 0.00 0.08 0.08 73 1013.2
20260905023334 27 126 6.4 11.3 0.00 0.08 0.08 73 1013.2
20260905022847 27 130 4.8 11.3 0.00 0.08 0.08 73 1013.1
20260905022350 27 138 4.8 8.0 0.00 0.08 0.08 73 1013.0
20260905021836 27 124 3.2 8.0 0.00 0.08 0.08 73 1013.0
20260905021343 27 119 4.8 8.0 0.00 0.08 0.08 73 1013.0
20260905020856 27 130 4.8 8.0 0.00 0.08 0.08 73 1012.9
20260905020322 27 189 3.2 6.4 0.00 0.08 0.08 73 1012.7
20260905015830 27 176 3.2 8.0 0.00 0.08 0.08 73 1012.7
20260905015332 27 173 3.2 8.0 0.00 0.08 0.08 73 1012.7
20260905014819 28 159 4.8 8.0 0.00 0.08 0.08 73 1012.6
20260905014323 28 164 3.2 8.0 0.00 0.08 0.08 73 1012.6
20260905013825 28 159 4.8 9.7 0.00 0.08 0.08 73 1012.5
20260905013328 28 152 4.8 11.3 0.00 0.08 0.08 73 1012.5
20260905012842 28 134 4.8 11.3 0.00 0.08 0.08 73 1012.5
20260905012344 28 142 6.4 11.3 0.00 0.08 0.08 73 1012.4
20260905011827 28 150 4.8 8.0 0.00 0.08 0.08 73 1012.3
20260905011334 29 144 3.2 12.9 0.00 0.08 0.08 73 1012.2
20260905010836 29 136 4.8 12.9 0.00 0.08 0.08 73 1012.2
20260905010350 30 140 6.4 8.0 0.00 0.08 0.08 73 1012.2
20260905005859 30 131 4.8 8.0 0.00 0.08 0.08 74 1012.1
20260905005321 30 127 3.2 6.4 0.00 0.08 0.08 74 1012.0
20260905004827 30 127 3.2 6.4 0.00 0.08 0.08 74 1011.9
20260905004342 30 140 3.2 4.8 0.00 0.08 0.08 74 1011.9
20260905003819 30 140 3.2 11.3 0.00 0.08 0.08 75 1011.8
20260905003332 30 141 4.8 11.3 0.00 0.08 0.08 75 1011.8
20260905002841 30 130 4.8 11.3 0.00 0.08 0.08 75 1011.8
20260905002326 31 136 4.8 11.3 0.00 0.08 0.08 76 1011.8
20260905001828 31 162 3.2 8.0 0.00 0.08 0.08 76 1011.8
20260905001329 31 163 4.8 12.9 0.00 0.08 0.08 76 1011.9
20260905000836 31 148 4.8 12.9 0.00 0.08 0.08 76 1011.8
20260905000325 31 124 4.8 12.9 0.00 0.08 0.08 77 1011.8
20260904235833 31 139 6.4 16.1 0.00 0.08 0.08 77 1011.8
20260904235336 31 130 8.0 16.1 0.00 0.10 0.08 77 1011.9
20260904234823 31 156 6.4 16.1 0.00 0.10 0.08 78 1011.8
20260904234328 31 128 8.0 14.5 0.00 0.10 0.08 78 1011.8
20260904233836 31 134 6.4 14.5 0.00 0.10 0.08 79 1011.8
20260904233344 31 140 6.4 14.5 0.00 0.10 0.08 79 1011.8
20260904232857 31 138 8.0 14.5 0.00 0.10 0.08 79 1011.8
20260904232321 31 122 8.0 12.9 0.00 0.10 0.08 80 1011.8
20260904231829 32 128 4.8 17.7 0.00 0.10 0.08 80 1011.8
20260904231336 32 101 9.7 17.7 0.00 0.10 0.08 81 1011.8
20260904230825 32 92 8.0 17.7 0.00 0.10 0.08 81 1011.8
20260904230334 32 129 11.3 19.3 0.00 0.10 0.08 81 1011.8
20260904225843 32 121 6.4 12.9 0.00 0.10 0.08 82 1011.8
20260904225324 32 122 6.4 16.1 0.00 0.10 0.08 82 1011.8
20260904224833 32 138 8.0 16.1 0.00 0.10 0.08 82 1011.8
20260904224320 32 134 6.4 16.1 0.00 0.10 0.08 83 1011.8
20260904223824 32 88 9.7 16.1 0.00 0.10 0.08 83 1011.8
20260904223327 32 183 6.4 14.5 0.00 0.10 0.08 83 1011.8
20260904222834 32 139 8.0 14.5 0.00 0.10 0.08 84 1011.9
20260904222318 32 149 8.0 19.3 0.00 0.10 0.08 84 1011.9
20260904221833 32 126 9.7 19.3 0.00 0.10 0.08 84 1011.9
20260904221339 32 103 6.4 22.5 0.00 0.10 0.08 84 1011.9
20260904220828 32 115 11.3 20.9 0.00 0.10 0.08 85 1011.9
20260904220332 32 107 11.3 20.9 0.00 0.10 0.08 85 1011.9
20260904215840 32 205 6.4 16.1 0.00 0.10 0.08 86 1012.0
20260904215331 31 157 4.8 12.9 0.00 0.13 0.08 86 1012.0
20260904214857 31 176 8.0 17.7 0.00 0.13 0.08 86 1012.1
20260904214322 31 150 9.7 20.9 0.00 0.13 0.08 86 1012.3
20260904213823 31 105 11.3 20.9 0.00 0.13 0.08 86 1012.3
20260904213328 31 190 8.0 20.9 0.00 0.13 0.08 86 1012.3
20260904212844 31 112 11.3 20.9 0.00 0.13 0.08 86 1012.3
20260904212346 31 125 9.7 24.1 0.00 0.13 0.08 87 1012.4
20260904211827 31 101 8.0 17.7 0.00 0.13 0.08 87 1012.5
20260904211329 31 134 9.7 16.1 0.00 0.13 0.08 87 1012.6
20260904210833 31 178 6.4 16.1 0.00 0.13 0.08 87 1012.5
20260904210347 31 215 4.8 24.1 0.00 0.13 0.08 87 1012.6
20260904205831 31 226 11.3 24.1 0.00 0.13 0.08 87 1012.6
20260904205317 31 89 11.3 22.5 0.00 0.13 0.08 88 1012.7
20260904204825 31 144 12.9 22.5 0.00 0.13 0.08 88 1012.7
20260904204330 31 148 8.0 19.3 0.00 0.13 0.08 88 1012.7
20260904203817 31 149 9.7 20.9 0.00 0.13 0.08 89 1012.7
20260904203327 31 151 12.9 29.0 0.00 0.13 0.08 89 1012.8
20260904202835 31 107 16.1 29.0 0.00 0.13 0.08 89 1012.8
20260904202319 31 131 9.7 19.3 0.00 0.13 0.08 89 1012.9
20260904201828 31 171 9.7 20.9 0.00 0.13 0.08 89 1012.9
20260904201327 31 146 11.3 20.9 0.00 0.13 0.08 89 1013.0
20260904200836 31 123 11.3 19.3 0.00 0.13 0.08 90 1013.0
20260904200324 31 115 4.8 22.5 0.00 0.13 0.08 90 1013.0
20260904195829 31 150 8.0 22.5 0.00 0.13 0.08 90 1012.9
20260904195334 31 178 9.7 14.5 0.00 0.13 0.08 91 1013.0
20260904194846 31 143 4.8 16.1 0.00 0.13 0.08 91 1013.0
20260904194330 31 145 8.0 16.1 0.00 0.13 0.08 91 1012.9
20260904193834 31 140 8.0 27.4 0.00 0.13 0.08 91 1013.1
20260904193319 31 109 11.3 27.4 0.00 0.13 0.08 91 1013.2
20260904192829 31 138 12.9 19.3 0.00 0.13 0.08 91 1013.3
20260904192332 31 111 11.3 19.3 0.00 0.13 0.08 92 1013.4
20260904191820 30 157 9.7 17.7 0.00 0.13 0.08 91 1013.6
20260904191326 30 136 11.3 17.7 0.00 0.13 0.08 91 1013.7
20260904190831 30 126 9.7 19.3 0.00 0.13 0.08 92 1013.7
20260904190320 30 108 8.0 19.3 0.00 0.13 0.08 92 1013.8
20260904185851 30 109 6.4 14.5 0.00 0.13 0.08 92 1013.9
20260904185345 30 108 4.8 16.1 0.00 0.15 0.08 92 1014.0
20260904184848 30 153 8.0 16.1 0.00 0.15 0.08 92 1014.0
20260904184356 30 132 6.4 16.1 0.00 0.15 0.08 92 1014.0
20260904183820 30 132 6.4 19.3 0.00 0.15 0.08 92 1014.0
20260904183338 30 189 11.3 14.5 0.00 0.15 0.08 92 1014.1
20260904182831 30 161 8.0 20.9 0.00 0.15 0.08 92 1014.0
20260904182357 31 147 8.0 20.9 0.00 0.15 0.08 92 1014.1
20260904181824 31 144 8.0 17.7 0.00 0.15 0.08 93 1014.2
20260904181328 31 222 6.4 17.7 0.00 0.15 0.08 93 1014.2
20260904180841 31 186 4.8 11.3 0.00 0.15 0.08 93 1014.2
20260904180319 31 205 6.4 17.7 0.00 0.15 0.08 93 1014.2
20260904175833 31 216 6.4 17.7 0.00 0.15 0.08 93 1014.3
20260904175339 31 163 6.4 14.5 0.00 0.58 0.08 94 1014.3
20260904174828 31 239 8.0 24.1 0.00 0.58 0.08 94 1014.2
20260904174352 31 208 12.9 24.1 0.00 0.58 0.08 94 1014.2
20260904173859 30 176 3.2 17.7 0.00 0.58 0.08 95 1014.2
20260904173324 30 200 9.7 17.7 0.00 0.58 0.08 95 1014.3
20260904172826 30 225 6.4 16.1 0.00 0.58 0.08 95 1014.4
20260904172330 30 244 6.4 12.9 0.00 0.58 0.08 95 1014.5
20260904171834 30 265 3.2 14.5 0.00 0.58 0.08 95 1014.6
20260904171338 29 106 6.4 16.1 0.00 0.58 0.08 95 1014.7
20260904170907 29 115 9.7 16.1 0.00 0.58 0.08 95 1014.8
20260904170329 29 119 6.4 11.3 0.00 0.58 0.08 95 1014.9
20260904165836 28 210 6.4 14.5 0.00 0.58 0.08 95 1014.9
20260904165321 28 163 8.0 19.3 0.00 0.89 0.08 94 1014.9
20260904164849 28 211 9.7 19.3 0.00 0.89 0.08 94 1014.7
20260904164332 28 15 1.6 8.0 0.00 0.89 0.08 94 1014.8
20260904163818 28 22 4.8 8.0 0.03 0.89 0.08 95 1014.8
20260904163320 28 355 3.2 6.4 0.03 0.89 0.08 94 1014.8
20260904162829 27 355 4.8 6.4 0.03 0.89 0.08 94 1014.8
20260904162333 27 11 3.2 6.4 0.03 0.89 0.08 94 1014.8
20260904161840 27 12 1.6 6.4 0.03 0.89 0.08 94 1014.8
20260904161325 27 351 3.2 8.0 0.03 0.89 0.08 93 1014.9
20260904160828 27 351 6.4 9.7 0.03 0.89 0.08 93 1014.9
20260904160336 27 340 4.8 9.7 0.03 0.89 0.08 93 1014.9
20260904155819 28 303 3.2 6.4 0.03 0.89 0.08 93 1014.8
20260904155322 28 258 1.6 4.8 0.03 1.12 0.08 93 1014.8